Погода в Туамасине

Мадагаскар     18°08′59″S   49°23′34″E
темп.,
°C
ветер,
м/с
пор.,
м/с
влажн.,
%
обл.,
%
осадки,
мм/ч
давл.,
гПа
погр.,
м
10 августа, ср
ср1000:00+22юв56711 0.3 1023948
03:00+21ююв457741 0.6 1022605
06:00+21юв457970 1.9 1022626
09:00+22юв9970100 3.1 10241103
12:00+22юв8965100 0.1 10231295
15:00+23юв886239 0.1 10221517
18:00+23юв886465 0.1 10231370
21:00+22ююв5662100 0.3 1024958
11 августа, чт
чт1100:00+22юв677092 0.8 1023903
03:00+22юв77662 1.7 1022898
06:00+22ююв576836 0.3 1023991
09:00+22юв897299 1.5 1024946
12:00+22юв9107696 2.0 1023848
15:00+22юв78724 3.6 1022859
18:00+23вюв88693 0.6 10231191
21:00+22вюв77714 0.8 10241092
12 августа, пт
пт1200:00+22в897274 1.7 10241028
03:00+22вюв78721 2.6 10221048
06:00+21вюв457573 1.3 1022410
09:00+22в677495 3.3 1024804
12:00+23вюв77705 1.2 10221140
15:00+23в787051 2.3 1021998
18:00+23вюв777027 0.4 1022982
21:00+22вюв67737 0.6 1022878
13 августа, сб
сб1300:00+22в237073 2.0 1022275
03:00+20юз237815 3.4 1020139
06:00+21ююз34763 0.6 1021383
09:00+22вюв247398 2.0 1022624
12:00+22в5675100 2.6 1021687
15:00+23вюв556910 3.2 1019992
18:00+23вюв4469100 0.1 1020976
21:00+22в447395 0.8 1022688
14 августа, вс
вс1400:00+22всв447494 1.6 1021642
03:00+21всв237688 3.4 1019513
06:00+22всв347546 1.9 1019678
09:00+22всв457345 3.4 1021795
12:00+23всв44706 0.6 1019866
15:00+23всв447110 0.8 1017816
18:00+23всв44713 0.1 1018868
21:00+22св557482 0.7 1020827